Chariton, IA

10:32 AM CST on February 23, 2017 (GMT -0600)
Chariton Municipal

Weather History for KCNC - January, 2013

Change the Weather History Date:

Tuesday, January 15, 2013

  Actual Average Record
Temperature  
Mean Temperature 25 °F -  
Max Temperature 35 °F 31 °F 60 °F (2006)
Min Temperature 15 °F 11 °F -26 °F (1979)
Degree Days  
Heating Degree Days 40    
Moisture  
Dew Point 11 °F    
Average Humidity 58    
Maximum Humidity 79    
Minimum Humidity 30    
Precipitation  
Precipitation 0.00 in - - ()
Sea Level Pressure  
Sea Level Pressure 30.29 in    
Wind  
Wind Speed 5 mph (SSW)    
Max Wind Speed 9 mph    
Max Gust Speed -    
Visibility 10 miles    
Events      
Averages and records for this station are not official NWS values.
T = Trace of Precipitation, MM = Missing Value Source: NWS Daily Summary

Daily Weather History Graph

Daily Weather History Graph

Search for Another Location

Airport or City:

Trip Planner

Search our weather history database for the weather conditions in past years. The results will help you decide how hot, cold, wet, or windy it might be!

Date:

Astronomy

Jan. 15, 2013 Rise Set
Actual Time 7:36 AM CST 5:10 PM CST
Civil Twilight 7:05 AM CST 5:40 PM CST
Nautical Twilight 6:31 AM CST 6:14 PM CST
Astronomical Twilight 5:58 AM CST 6:47 PM CST
Moon 9:39 AM CST (1/15) 10:03 PM CST (1/15)
Length of Visible Light 10h 34m
Length of Day
9h 34m
Waxing Crescent, 19% of the Moon is Illuminated
Jan 15
Waxing Crescent
Jan 18
First Quarter
Jan 26
Full
Feb 3
Last Quarter
Feb 10
New

Hourly Weather History & Observations

Time (CST) Temp. Windchill Dew Point Humidity Pressure Visibility Wind Dir Wind Speed Gust Speed Precip Events Conditions
12:15 AM 17.6 °F 10.7 °F 10.4 °F 73% 30.40 in 10.0 mi SSE 4.6 mph - N/A   Clear
12:35 AM 17.6 °F 9.3 °F 10.4 °F 73% 30.40 in 10.0 mi South 5.8 mph - N/A   Clear
12:55 AM 17.6 °F 8.2 °F 10.4 °F 73% 30.40 in 10.0 mi South 6.9 mph - N/A   Clear
1:15 AM 19.4 °F 11.5 °F 10.4 °F 68% 30.40 in 10.0 mi South 5.8 mph - N/A   Clear
1:35 AM 19.4 °F 12.8 °F 10.4 °F 68% 30.39 in 10.0 mi SSW 4.6 mph - N/A   Clear
1:55 AM 19.4 °F 11.5 °F 12.2 °F 74% 30.39 in 10.0 mi SSW 5.8 mph - N/A   Clear
2:15 AM 19.4 °F 14.3 °F 12.2 °F 74% 30.39 in 10.0 mi SW 3.5 mph - N/A   Clear
2:35 AM 19.4 °F - 12.2 °F 74% 30.38 in 10.0 mi Calm Calm - N/A   Clear
2:55 AM 19.4 °F - 12.2 °F 74% 30.38 in 10.0 mi Calm Calm - N/A   Clear
3:55 AM 19.4 °F 14.3 °F 12.2 °F 74% 30.37 in 10.0 mi SW 3.5 mph - N/A   Clear
4:15 AM 17.6 °F 10.7 °F 10.4 °F 73% 30.37 in 10.0 mi South 4.6 mph - N/A   Clear
4:55 AM 17.6 °F 12.3 °F 10.4 °F 73% 30.35 in 10.0 mi SSE 3.5 mph - N/A   Clear
5:15 AM 17.6 °F 10.7 °F 10.4 °F 73% 30.35 in 10.0 mi South 4.6 mph - N/A   Clear
5:35 AM 17.6 °F 10.7 °F 10.4 °F 73% 30.35 in 10.0 mi South 4.6 mph - N/A   Clear
5:55 AM 17.6 °F 10.7 °F 10.4 °F 73% 30.36 in 10.0 mi South 4.6 mph - N/A   Clear
6:15 AM 15.8 °F 7.2 °F 10.4 °F 79% 30.37 in 10.0 mi South 5.8 mph - N/A   Clear
6:55 AM 17.6 °F 12.3 °F 10.4 °F 73% 30.36 in 10.0 mi SSW 3.5 mph - N/A   Clear
7:15 AM 17.6 °F 10.7 °F 10.4 °F 73% 30.37 in 10.0 mi South 4.6 mph - N/A   Clear
7:35 AM 15.8 °F 8.6 °F 8.6 °F 73% 30.37 in 10.0 mi South 4.6 mph - N/A   Clear
7:55 AM 15.8 °F 8.6 °F 10.4 °F 79% 30.37 in 10.0 mi SSW 4.6 mph - N/A   Clear
8:15 AM 17.6 °F 9.3 °F 10.4 °F 73% 30.38 in 10.0 mi SSW 5.8 mph - N/A   Clear
8:35 AM 17.6 °F 9.3 °F 10.4 °F 73% 30.38 in 10.0 mi South 5.8 mph - N/A   Clear
8:55 AM 19.4 °F 14.3 °F 12.2 °F 74% 30.38 in 10.0 mi SSW 3.5 mph - N/A   Clear
9:15 AM 23.0 °F 18.4 °F 15.8 °F 74% 30.37 in 10.0 mi SW 3.5 mph - N/A   Clear
9:35 AM 26.6 °F 20.0 °F 15.8 °F 64% 30.36 in 10.0 mi SSW 5.8 mph - N/A   Clear
9:55 AM 26.6 °F 21.2 °F 15.8 °F 64% 30.35 in 10.0 mi SW 4.6 mph - N/A   Clear
10:15 AM 28.4 °F 23.3 °F 15.8 °F 59% 30.34 in 10.0 mi SW 4.6 mph - N/A   Clear
10:35 AM 28.4 °F 22.2 °F 14.0 °F 55% 30.34 in 10.0 mi SW 5.8 mph - N/A   Clear
10:55 AM 30.2 °F 26.7 °F 12.2 °F 47% 30.34 in 10.0 mi SW 3.5 mph - N/A   Clear
11:15 AM 30.2 °F 22.6 °F 12.2 °F 47% 30.33 in 10.0 mi South 8.1 mph - N/A   Clear
11:35 AM 32.0 °F 24.8 °F 12.2 °F 44% 30.32 in 10.0 mi South 8.1 mph - N/A   Clear
12:15 PM 33.8 °F 27.7 °F 10.4 °F 38% 30.30 in 10.0 mi SSW 6.9 mph - N/A   Scattered Clouds
12:35 PM 33.8 °F 28.6 °F 8.6 °F 35% 30.29 in 10.0 mi SW 5.8 mph - N/A   Mostly Cloudy
12:55 PM 33.8 °F 28.6 °F 8.6 °F 35% 30.28 in 10.0 mi SSW 5.8 mph - N/A   Mostly Cloudy
1:15 PM 33.8 °F 27.0 °F 8.6 °F 35% 30.27 in 10.0 mi South 8.1 mph - N/A   Scattered Clouds
1:35 PM 33.8 °F 27.7 °F 8.6 °F 35% 30.27 in 10.0 mi SSW 6.9 mph - N/A   Clear
1:55 PM 33.8 °F 27.0 °F 8.6 °F 35% 30.26 in 10.0 mi SW 8.1 mph - N/A   Clear
2:15 PM 33.8 °F 27.7 °F 5.0 °F 30% 30.25 in 10.0 mi SSW 6.9 mph - N/A   Clear
2:35 PM 35.6 °F 30.7 °F 6.8 °F 30% 30.25 in 10.0 mi South 5.8 mph - N/A   Clear
2:55 PM 35.6 °F 29.9 °F 6.8 °F 30% 30.25 in 10.0 mi SW 6.9 mph - N/A   Clear
3:15 PM 35.6 °F 29.9 °F 8.6 °F 33% 30.25 in 10.0 mi South 6.9 mph - N/A   Clear
3:35 PM 35.6 °F 29.2 °F 6.8 °F 30% 30.25 in 10.0 mi South 8.1 mph - N/A   Clear
3:55 PM 33.8 °F 27.7 °F 8.6 °F 35% 30.25 in 10.0 mi SSW 6.9 mph - N/A   Clear
4:15 PM 33.8 °F 27.0 °F 6.8 °F 32% 30.25 in 10.0 mi SSW 8.1 mph - N/A   Clear
4:35 PM 33.8 °F 27.0 °F 8.6 °F 35% 30.24 in 10.0 mi SSW 8.1 mph - N/A   Clear
4:55 PM 32.0 °F 25.6 °F 10.4 °F 41% 30.23 in 10.0 mi SSW 6.9 mph - N/A   Clear
5:35 PM 28.4 °F 21.2 °F 10.4 °F 47% 30.23 in 10.0 mi SSW 6.9 mph - N/A   Clear
5:55 PM 26.6 °F 19.1 °F 12.2 °F 55% 30.22 in 10.0 mi South 6.9 mph - N/A   Clear
6:15 PM 26.6 °F 19.1 °F 12.2 °F 55% 30.22 in 10.0 mi SSW 6.9 mph - N/A   Clear
6:35 PM 24.8 °F 16.1 °F 10.4 °F 54% 30.21 in 10.0 mi South 8.1 mph - N/A   Clear
6:55 PM 26.6 °F 19.1 °F 10.4 °F 51% 30.21 in 10.0 mi SSW 6.9 mph - N/A   Clear
7:15 PM 24.8 °F 15.3 °F 10.4 °F 54% 30.20 in 10.0 mi South 9.2 mph - N/A   Clear
7:35 PM 24.8 °F 16.9 °F 10.4 °F 54% 30.20 in 10.0 mi SSW 6.9 mph - N/A   Clear
7:55 PM 24.8 °F 16.9 °F 10.4 °F 54% 30.19 in 10.0 mi SSW 6.9 mph - N/A   Clear
8:15 PM 23.0 °F 13.9 °F 10.4 °F 59% 30.18 in 10.0 mi SSW 8.1 mph - N/A   Clear
8:35 PM 23.0 °F 13.9 °F 12.2 °F 63% 30.17 in 10.0 mi SSW 8.1 mph - N/A   Clear
8:55 PM 23.0 °F 13.9 °F 10.4 °F 59% 30.17 in 10.0 mi SSW 8.1 mph - N/A   Clear
9:15 PM 23.0 °F 13.9 °F 12.2 °F 63% 30.16 in 10.0 mi SSW 8.1 mph - N/A   Clear
9:35 PM 21.2 °F 12.6 °F 12.2 °F 68% 30.15 in 10.0 mi SSW 6.9 mph - N/A   Clear
9:55 PM 21.2 °F 12.6 °F 12.2 °F 68% 30.15 in 10.0 mi SSW 6.9 mph - N/A   Clear
10:15 PM 21.2 °F 12.6 °F 10.4 °F 63% 30.15 in 10.0 mi SSW 6.9 mph - N/A   Clear
10:55 PM 21.2 °F 11.7 °F 10.4 °F 63% 30.13 in 10.0 mi SSW 8.1 mph - N/A   Clear
11:15 PM 21.2 °F 12.6 °F 10.4 °F 63% 30.13 in 10.0 mi SSW 6.9 mph - N/A   Clear
11:35 PM 19.4 °F 10.4 °F 10.4 °F 68% 30.11 in 10.0 mi South 6.9 mph - N/A   Clear